Theta_e
318 318 318 316 316 316 316 317 317 316 313 311 316 320 321 316 312 317 326 322 322 320 318 322 326 325 328 332 330 330 342 338 331 330 328 323 324 322 322 322 320 321 323 326 329
318 318 318 317 316 316 318 318 317 315 311 311 316 320 318 313 318 325 320 318 319 317 320 323 326 325 329 331 331 331 342 330 327 327 328 324 324 323 323 323 321 320 322 325 328
317 318 318 318 318 318 318 317 316 313 311 313 316 318 315 314 323 319 316 315 317 316 317 319 322 325 328 328 328 330 334 328 326 325 323 323 322 321 324 322 319 319 320 321 323
315 317 317 317 317 317 317 316 315 311 311 314 315 315 312 318 324 318 315 313 314 315 319 322 323 325 329 331 326 330 325 326 326 322 321 323 322 320 320 318 317 317 318 319 319
314 314 314 316 316 316 316 315 312 310 312 313 314 312 313 319 318 316 314 313 314 317 321 322 323 325 329 327 325 328 325 322 321 322 322 322 322 320 317 316 316 317 317 317 317
313 314 314 314 314 315 314 312 310 310 313 312 312 312 317 323 315 313 313 314 316 319 320 322 323 322 324 324 325 324 323 321 321 321 321 322 320 319 317 316 316 316 316 315 314
314 313 313 314 314 313 311 309 309 311 312 311 311 315 321 318 314 313 313 313 314 318 319 317 318 320 322 324 321 321 322 321 322 321 322 321 322 320 317 316 316 316 315 313 312
314 313 313 313 312 310 309 309 310 312 311 311 315 318 320 316 315 314 315 316 316 315 315 314 316 320 321 320 319 320 320 323 323 322 321 320 322 321 316 316 316 316 314 312 311
312 313 313 310 309 309 309 309 310 311 311 314 316 318 317 314 315 313 314 316 316 317 314 315 317 322 319 322 322 322 320 322 324 322 322 320 323 320 316 316 317 316 314 312 311
311 310 309 309 309 309 309 309 310 312 314 316 318 317 315 316 315 314 314 313 317 317 320 319 321 322 322 322 322 322 322 322 323 322 321 322 320 319 317 316 317 316 315 313 311
308 309 309 308 309 309 309 312 314 316 318 318 316 316 315 314 315 317 315 316 317 318 321 321 322 322 323 323 322 321 320 321 321 322 321 322 321 321 318 316 316 316 315 313 312
308 309 309 309 308 309 316 319 319 319 317 316 316 316 316 316 318 318 317 318 318 320 320 321 320 322 321 321 321 322 322 322 323 321 320 320 320 321 318 316 316 316 315 314 313
309 309 309 309 309 312 319 321 315 318 319 317 317 317 316 317 319 319 318 318 319 321 321 321 323 321 320 322 321 322 323 323 321 322 321 321 322 322 320 317 315 316 315 314 312
309 309 309 309 311 316 321 313 315 316 321 318 318 318 317 319 320 318 317 319 320 321 323 322 321 321 321 321 322 323 321 321 321 322 323 321 321 322 319 316 315 315 314 314 312
308 309 309 320 318 319 320 313 316 320 323 319 319 318 318 319 320 320 318 320 321 322 321 322 321 321 322 322 321 322 320 320 321 321 319 319 319 322 319 317 314 314 314 313 312
308 310 315 316 317 320 315 314 318 322 323 321 320 319 319 319 320 319 318 317 317 320 321 321 319 319 320 320 319 318 319 320 320 319 319 318 320 322 319 318 316 314 313 313 312
311 314 318 318 320 313 315 320 322 322 322 322 322 320 320 321 320 320 320 319 320 321 321 321 320 317 316 318 319 318 320 322 323 324 324 321 321 319 317 315 316 315 314 313 312
315 316 316 317 319 314 317 322 324 321 323 322 321 321 322 322 321 320 321 321 316 315 318 320 322 319 317 318 317 321 319 319 320 320 319 319 319 318 314 315 314 315 314 313 311
315 317 316 316 314 314 321 323 323 323 321 321 321 322 322 320 318 320 320 320 313 312 316 317 318 314 314 314 314 318 316 316 315 315 316 317 319 315 313 312 313 313 312 311 310
315 315 316 317 315 316 322 322 320 316 318 320 322 322 323 322 318 319 320 316 314 310 310 313 313 313 311 311 313 313 314 316 315 318 319 318 318 316 313 312 312 311 311 311 310
314 316 314 317 316 320 321 319 316 313 316 318 321 322 321 321 319 319 316 314 313 311 309 311 312 312 310 312 315 313 313 313 313 314 315 315 316 314 314 313 311 311 311 311 310
316 316 312 315 318 321 321 317 312 314 313 315 315 317 318 318 317 317 317 316 310 310 313 309 311 312 313 310 310 311 313 314 315 317 317 315 316 311 310 311 311 311 310 310 310
317 313 312 315 319 318 315 313 313 313 314 314 315 314 313 315 316 314 314 310 308 310 311 310 312 313 312 312 310 309 311 311 311 312 315 313 313 310 311 311 311 310 310 309 309
312 316 313 314 315 315 317 316 313 309 312 311 311 311 312 312 312 313 314 310 307 309 306 308 312 313 315 313 313 312 313 312 311 312 312 313 314 313 312 311 309 309 308 308 307
312 317 313 316 315 314 315 315 314 311 309 309 310 310 311 312 311 311 313 311 308 310 308 309 311 312 312 312 311 311 311 310 309 310 310 311 311 311 310 308 309 309 309 308 307
314 314 309 312 312 313 309 312 312 309 310 310 310 310 309 310 310 312 312 311 313 311 310 310 312 311 310 312 310 310 310 310 310 310 310 310 310 310 311 310 309 309 309 308 307
313 310 313 310 313 315 316 313 311 309 308 308 309 310 309 309 307 307 307 308 308 311 311 311 311 312 314 311 312 312 313 313 311 312 311 310 311 311 309 309 309 309 308 307 306
Wind_Speed
10 10 11 13 14 17 15 14 12 11 9 12 10 7 5 3 2 5 1 6 8 3 1 5 8 6 4 4 3 4 3 4 4 3 5 3 3 8 9 15 20 10 11 7 8
11 9 10 11 12 12 12 12 11 10 9 12 10 8 5 3 5 3 7 8 4 2 1 3 2 4 3 2 2 2 3 4 5 6 5 6 6 6 1 13 13 12 11 9 10
11 10 9 10 10 10 12 14 11 10 10 12 10 8 5 4 2 5 7 4 3 1 1 2 4 4 3 3 3 4 3 5 5 7 5 2 7 3 4 5 6 7 8 9 10
13 12 10 10 10 12 13 12 10 10 12 13 10 8 7 6 0 3 3 2 2 2 5 4 3 4 3 2 1 4 6 3 3 0 2 3 9 5 9 8 9 7 7 8 10
14 14 12 11 11 12 11 11 10 12 13 13 10 9 9 4 1 3 2 2 2 4 2 2 4 2 5 3 3 4 8 4 3 2 4 5 5 7 8 9 8 7 7 8 9
14 15 13 12 11 12 11 10 12 13 14 12 10 10 7 4 1 2 1 1 4 4 4 3 3 3 5 4 4 4 6 9 7 7 6 7 5 6 9 10 9 8 8 7 8
13 13 13 11 12 12 10 11 13 13 13 10 10 10 2 1 2 1 2 2 3 5 0 0 0 2 2 4 2 4 6 5 8 9 5 4 6 8 17 13 11 10 8 7 7
14 12 11 11 12 10 11 12 12 13 11 10 11 6 0 4 4 2 3 2 4 2 1 1 3 1 3 2 3 4 8 6 11 13 8 5 5 9 14 14 13 12 11 8 7
11 10 10 11 10 10 12 12 12 11 9 11 8 0 4 3 4 1 3 1 1 3 2 2 3 2 1 4 5 7 6 10 5 12 7 7 3 10 14 14 13 12 13 11 10
9 10 11 11 11 13 13 12 13 10 9 8 3 4 4 4 4 3 2 2 1 2 2 1 2 2 4 6 6 6 4 8 1 8 5 7 10 11 18 16 14 14 14 14 12
11 11 10 11 14 14 16 17 9 4 6 3 7 7 7 4 6 3 0 1 1 3 3 5 2 6 5 4 5 7 8 8 8 6 2 7 11 8 20 16 14 15 15 15 15
11 10 12 13 13 16 12 2 1 5 5 2 3 7 6 3 4 3 2 3 4 5 6 3 6 4 3 4 4 7 9 9 2 7 2 7 12 9 19 17 19 18 16 16 15
12 13 13 12 12 15 5 3 6 7 5 4 4 4 4 2 2 6 3 0 5 7 5 7 4 3 2 1 5 7 7 7 7 2 8 7 11 14 10 18 17 17 17 16 16
15 14 15 14 9 5 1 3 9 1 4 6 5 3 3 2 3 0 2 2 2 4 5 5 5 2 2 6 7 7 8 6 6 5 3 3 5 4 11 9 11 17 18 18 15
16 17 18 6 10 1 4 9 2 1 4 8 6 4 3 3 6 2 0 1 4 5 1 1 1 2 4 2 6 4 4 4 5 7 8 8 3 4 11 7 10 17 20 18 15
15 17 13 8 7 5 4 8 1 3 2 3 5 6 6 5 5 2 2 0 2 4 7 7 3 2 5 3 3 3 5 8 4 4 4 10 7 4 6 11 9 18 22 21 18
16 14 11 12 6 5 7 3 4 4 5 5 5 5 8 6 5 2 4 5 2 3 5 8 8 5 2 3 4 4 4 2 3 3 3 6 4 4 7 6 3 16 23 21 18
12 7 5 5 5 7 6 4 4 6 6 3 3 3 4 4 3 3 3 4 1 3 4 4 4 5 4 2 4 6 2 3 4 2 2 4 5 4 7 9 3 6 19 19 16
9 5 2 2 4 7 3 5 5 6 3 3 3 4 7 4 1 3 6 4 6 6 3 6 4 4 4 4 2 3 3 3 4 8 4 5 3 4 4 5 5 7 14 15 14
6 3 4 4 6 6 4 5 4 4 2 2 3 2 4 8 3 4 6 3 3 4 4 2 2 1 4 2 4 3 5 2 2 3 4 4 6 3 4 5 4 6 8 11 12
5 4 3 5 6 5 4 4 4 4 4 2 4 1 1 2 3 2 6 2 1 2 3 3 3 3 1 6 2 3 3 4 1 2 3 3 2 2 7 3 9 10 13 16 16
1 2 2 9 5 7 3 4 2 3 1 1 2 3 3 3 2 1 3 5 3 4 2 4 3 4 3 4 5 3 4 3 2 4 3 2 6 8 8 9 9 11 9 7 1
4 3 2 9 3 5 4 4 3 2 2 1 2 2 2 1 1 2 4 3 2 3 5 5 3 4 2 2 2 3 4 4 5 2 5 1 5 6 9 5 4 3 4 7 10
2 3 3 5 6 6 5 4 3 2 2 1 3 1 1 3 2 2 4 2 1 3 2 3 3 4 3 3 2 4 3 4 4 2 4 6 14 9 10 6 11 10 8 9 5
3 2 1 3 6 4 2 3 6 3 1 3 3 5 2 2 3 3 4 5 3 3 1 2 3 5 8 9 8 8 10 10 12 12 7 12 12 14 6 6 9 8 8 6 10
4 2 0 3 1 5 2 4 6 4 4 5 2 4 1 2 6 4 1 3 4 6 2 3 2 4 4 6 3 7 13 12 12 12 13 14 14 6 5 12 12 11 14 16 14
5 4 0 3 3 3 2 5 4 10 2 6 2 3 3 5 5 4 4 3 4 1 6 4 2 3 4 2 8 8 4 2 3 4 4 6 7 5 6 9 13 16 20 18 12
Wind_Direction
235 247 230 236 243 244 252 255 259 253 231 224 203 190 218 233 189 145 265 238 260 284 5 21 11 341 11 311 355 314 289 30 61 55 111 86 11 90 81 84 59 61 57 44 43
227 227 228 229 235 239 235 248 258 236 216 213 192 177 204 211 162 236 245 255 250 269 138 23 9 331 247 281 291 297 6 44 29 44 99 92 28 359 153 120 79 60 58 65 77
224 226 227 224 225 227 242 255 243 223 200 204 184 170 180 175 191 204 246 239 236 247 113 331 317 303 260 268 7 40 94 126 60 63 18 353 109 17 100 87 78 80 69 73 79
224 226 227 228 231 239 250 243 223 209 187 198 178 164 165 169 130 262 233 214 186 142 42 311 282 247 255 212 77 127 57 13 111 29 260 243 115 83 35 103 135 122 99 94 90
229 230 227 229 235 241 234 222 210 191 180 193 169 158 156 204 129 298 244 205 100 70 14 336 279 279 246 93 264 100 130 108 131 153 88 126 94 125 120 135 137 127 121 107 101
227 229 229 232 237 235 220 206 196 174 179 189 163 158 158 217 220 296 174 136 100 54 54 45 358 323 328 25 330 97 132 141 158 146 139 127 139 154 170 160 154 149 135 125 118
224 225 225 232 233 224 202 183 177 165 180 179 158 157 193 294 195 208 75 62 78 126 89 90 89 8 22 152 175 169 163 181 183 173 177 222 185 224 161 173 171 167 150 140 131
223 222 225 227 220 195 177 168 162 163 177 166 153 148 59 199 171 75 77 358 42 48 118 146 136 114 315 105 220 227 222 205 180 179 144 157 288 140 166 183 185 184 163 157 152
206 212 214 206 184 165 155 159 146 157 164 147 141 218 118 141 111 65 140 166 74 20 33 66 89 327 192 236 239 200 244 230 168 191 149 179 257 154 179 195 198 189 172 175 169
187 189 179 168 161 149 147 136 125 132 135 141 152 233 179 142 176 117 355 105 43 351 355 68 235 242 209 237 244 329 259 311 253 189 214 216 237 169 186 196 209 208 188 183 184
158 157 154 158 149 146 136 115 112 116 189 321 141 92 121 134 99 95 235 315 217 236 253 178 263 222 253 243 6 330 305 297 297 112 179 247 264 251 181 195 216 213 206 194 199
147 147 148 147 154 150 121 95 141 142 132 95 105 91 120 153 139 105 21 257 187 247 181 183 230 36 41 25 339 300 284 282 126 131 168 270 275 239 172 185 200 212 214 203 199
143 142 141 148 155 154 66 304 176 148 192 134 128 126 127 164 52 68 6 351 264 267 234 251 45 94 327 248 276 259 262 298 337 19 229 251 276 250 183 173 196 217 213 215 203
148 145 141 133 128 135 301 227 168 11 201 139 186 139 152 144 140 0 31 0 239 298 356 276 66 335 286 279 286 289 17 10 322 320 278 139 289 266 148 158 188 205 218 215 203
151 146 141 107 134 86 227 174 181 359 197 159 126 147 156 211 136 161 0 251 286 338 182 51 129 196 263 329 24 57 359 323 311 290 301 255 220 312 129 192 202 203 210 213 209
152 148 141 119 136 224 210 179 31 238 133 129 127 176 177 187 148 134 187 186 286 286 231 270 72 325 12 74 2 44 279 243 247 247 254 231 172 196 178 206 192 195 204 208 210
147 149 150 142 184 196 166 118 218 268 171 134 166 177 218 161 179 218 196 198 278 279 187 199 202 113 275 254 165 219 276 274 228 191 258 69 189 294 114 86 22 177 190 198 199
148 146 146 194 193 180 151 236 266 94 70 65 152 178 203 161 196 177 241 225 134 267 294 269 183 173 123 300 357 200 329 307 304 8 359 75 234 207 89 87 93 142 174 181 189
140 135 70 188 179 165 239 229 17 34 41 137 167 218 186 170 303 212 216 24 46 18 299 348 105 86 19 14 349 115 207 3 298 264 267 234 178 93 110 91 116 131 153 171 192
112 173 217 188 172 157 254 261 99 60 21 285 265 237 321 141 186 188 147 5 89 18 344 41 277 318 114 256 207 275 338 253 223 270 282 313 344 89 160 149 178 163 178 189 199
135 210 222 187 165 226 245 60 101 66 27 339 348 312 279 17 273 265 69 90 25 110 300 320 256 137 125 199 138 163 226 216 293 261 274 319 247 111 125 116 176 187 207 209 214
295 231 164 171 209 226 293 43 114 101 64 74 317 327 329 46 252 268 65 56 32 349 324 56 332 285 64 60 28 328 318 334 195 309 298 226 268 59 82 88 40 31 22 45 191
262 87 152 169 253 196 128 91 63 134 152 164 150 336 45 277 264 355 85 63 44 341 15 3 230 300 128 136 152 258 230 233 312 92 222 155 268 125 102 104 174 205 241 259 270
284 176 141 217 283 304 136 167 135 40 88 353 53 321 224 202 94 82 131 111 87 30 356 348 289 281 278 352 191 277 249 225 238 237 269 234 286 332 333 32 50 31 14 4 339
251 40 95 191 218 232 12 93 148 151 276 212 171 256 243 211 173 195 94 139 176 162 233 273 278 328 315 307 286 272 272 267 253 245 255 286 294 306 6 31 352 342 334 315 292
307 275 345 16 345 176 113 195 178 110 162 163 272 126 181 341 30 35 126 212 110 159 247 116 289 359 287 255 349 278 265 266 270 273 270 280 283 130 4 329 322 316 336 321 303
268 255 127 144 214 240 92 96 121 130 53 31 57 155 200 73 35 50 31 30 11 141 200 191 231 1 264 339 331 282 288 5 346 297 283 269 279 357 358 329 325 321 315 306 305